Location: Unspecified
(0.0000°N, 0.0000°E)
Time: 12:27:46
(UTC+00:00)

AAUSAT CUBESAT 2 - Visible Passes

Search period start: 13 July 2020 00:00
Search period end: 23 July 2020 00:00
Orbit: 574 x 590 km, 97.5° (Epoch: 12 July)

Date Brightness Start Highest point End Pass type
(mag) Time Alt. Az. Time Alt. Az. Time Alt. Az.
16 Jul ? 04:45:03 10° E 04:45:55 11° ESE 04:46:48 10° ESE visible
17 Jul ? 04:49:33 10° ENE 04:51:28 13° ESE 04:53:23 10° SE visible
17 Jul ? 18:26:20 10° SSW 18:29:22 20° WSW 18:32:25 10° NW visible
18 Jul ? 04:54:31 10° ENE 04:57:01 16° ESE 04:59:32 10° SE visible
18 Jul ? 18:32:15 10° SW 18:34:55 17° WSW 18:37:35 10° WNW visible
19 Jul ? 04:59:38 10° NE 05:02:34 19° ESE 05:05:31 10° SSE visible
19 Jul ? 18:38:20 10° SW 18:40:28 14° WSW 18:42:37 10° WNW visible
20 Jul ? 05:04:51 10° NE 05:08:07 23° ESE 05:11:23 10° SSE visible
20 Jul ? 18:44:39 10° WSW 18:46:01 11° WSW 18:47:23 10° W visible
21 Jul ? 05:10:08 10° NE 05:13:40 27° ESE 05:17:11 10° SSE visible
22 Jul ? 05:15:29 10° NE 05:19:13 33° ESE 05:22:57 10° SSE visible
